Regional Weather Roundup
Issued by NWS Cleveland, OH

Home | Current Version | Previous Version | Graphics & Text | Print | Product List | Glossary On
Versions: 1 2 3 4 5 6 7 8 9 10 11 12 13 14 15 16 17 18 19 20 21 22 23 24 25 26 27 28 29 30 31 32 33 34 35 36 37 38 39 40 41 42 43 44 45 46 47 48 49 50
000
ASUS41 KCLE 211102
RWRCLE
OHIO REGIONAL WEATHER ROUNDUP
NATIONAL WEATHER SERVICE CLEVELAND, OH
700 AM EDT MON APR 21 2014

NOTE: "FAIR" INDICATES FEW OR NO CLOUDS BELOW 12,000 FEET WITH NO
SIGNIFICANT WEATHER AND/OR OBSTRUCTIONS TO VISIBILITY.

OHZ001>008-015>018-024>027-034-035-043-044-211200-
   NORTHWEST OHIO

CITY           SKY/WX    TMP DP  RH WIND       PRES   REMARKS
DEFIANCE       PTCLDY    43  36  76 CALM      30.05S
FINDLAY        PTCLDY    47  38  71 S7        30.04F
TOLEDO EXPRESS CLEAR     41  37  86 CALM      30.04S
TOLEDO EXEC    CLEAR     48  37  65 CALM      30.05S
LIMA           PTCLDY    51  38  60 S9        30.05F
$$

OHZ009>014-019>023-028>033-038-089-211200-
   NORTHEAST OHIO

CITY           SKY/WX    TMP DP  RH WIND       PRES   REMARKS
CLE-HOPKINS    PTCLDY    52  29  41 S5        30.08S
CLE-LAKEFRONT  CLEAR     55  29  36 SE13      30.04R
CUY CO. ARPT   MOCLDY    54  30  40 SE9       30.07
LORAIN-ELYRIA  CLEAR     52  32  46 S8        30.06S
ASHTABULA      CLEAR     47  30  51 S7        30.09R
AKRON-CANTON   PTCLDY    50  29  44 S3        30.08S
WOOSTER        CLEAR     41  35  79 CALM      30.08S
MANSFIELD      CLEAR     47  36  65 S6        30.07S
YOUNGSTOWN     PTCLDY    47  30  51 SE9       30.09S
$$

OHZ042-051>053-060>062-070>072-077>081-211200-
  SOUTHWEST OHIO

CITY           SKY/WX    TMP DP  RH WIND       PRES   REMARKS
CINC-COVINGTON MOCLDY    48  41  76 CALM      30.07S
CINC-LUNKEN    CLEAR     43  42  97 CALM      30.09S
HAMILTON       CLEAR     44  41  89 CALM      30.08S
DAYTON         PTCLDY    51  40  65 CALM      30.07F
WRIGHT-PAT AFB CLEAR     46  42  86 N2        30.07S
DAYTON GENERAL CLEAR     53  39  59 CALM      30.06F
WILMINGTON     CLEAR     49  40  71 CALM      30.07S
$$

OHZ036-037-039>041-045>050-054>059-063>069-073>076-082>088-211200-
  CENTRAL AND SOUTHEAST OHIO

CITY           SKY/WX    TMP DP  RH WIND       PRES   REMARKS
COLUMBUS       PTCLDY    48  38  68 CALM      30.08R
OSU AIRPORT    PTCLDY    47  40  76 CALM      30.08R
BOLTON FIELD   PTCLDY    44  42  91 CALM      30.08R
RICKENBACK AFB NOT AVBL
NEWARK         CLEAR     40  36  86 CALM      30.08R
MARION         CLEAR     45  39  79 S5        30.07S HAZE
LANCASTER      PTCLDY    40  37  89 CALM      30.08R
ZANESVILLE     CLEAR     40  34  79 CALM      30.09R
NEW PHILLY     CLEAR     39  32  76 CALM      30.10S
$$



USA.gov is the U.S. government's official web portal to all federal, state and local government web resources and services.